Stevepityu futás

2022.05.10 Kedd, 15:50:00

Sport


(edzés)

Edzés ideje

00:00:00

Távolság

236.16 km Szint: 6599 m

Tempó

00:00 p/km (0.00 km/h)

Útvonalad térképen

Szintemelkedés 6599 m

Edzésszakaszok

Idő Táv
(km)
Tempó
(p/km)
Seb.
(km/h)
Szint
(m)
Minimum
pulzus
(bpm)
Maximum
pulzus
(bpm)
Átlag
pulzus
(bpm)
00:00:00 1 00:00 0.00 21 0 0 0
00:00:00 0.96 00:00 0.00 18 0 0 0
00:00:00 1 00:00 0.00 19 0 0 0
00:00:00 1 00:00 0.00 22 0 0 0
00:00:00 1 00:00 0.00 19 0 0 0
00:00:00 1 00:00 0.00 25 0 0 0
00:00:00 1 00:00 0.00 43 0 0 0
00:00:00 1 00:00 0.00 23 0 0 0
00:00:00 1 00:00 0.00 27 0 0 0
00:00:00 1 00:00 0.00 54 0 0 0
00:00:00 1 00:00 0.00 42 0 0 0
00:00:00 0.92 00:00 0.00 24 0 0 0
00:00:00 0.98 00:00 0.00 57 0 0 0
00:00:00 1 00:00 0.00 48 0 0 0
00:00:00 1 00:00 0.00 30 0 0 0
00:00:00 1 00:00 0.00 17 0 0 0
00:00:00 1 00:00 0.00 26 0 0 0
00:00:00 1 00:00 0.00 26 0 0 0
00:00:00 0.96 00:00 0.00 50 0 0 0
00:00:00 1 00:00 0.00 27 0 0 0
00:00:00 0.97 00:00 0.00 9 0 0 0
00:00:00 1 00:00 0.00 23 0 0 0
00:00:00 1 00:00 0.00 9 0 0 0
00:00:00 1 00:00 0.00 22 0 0 0
00:00:00 0.91 00:00 0.00 37 0 0 0
00:00:00 1 00:00 0.00 22 0 0 0
00:00:00 1 00:00 0.00 16 0 0 0
00:00:00 1 00:00 0.00 26 0 0 0
00:00:00 0.97 00:00 0.00 21 0 0 0
00:00:00 1 00:00 0.00 34 0 0 0
00:00:00 1 00:00 0.00 14 0 0 0
00:00:00 1 00:00 0.00 3 0 0 0
00:00:00 0.97 00:00 0.00 21 0 0 0
00:00:00 1 00:00 0.00 11 0 0 0
00:00:00 1 00:00 0.00 56 0 0 0
00:00:00 1 00:00 0.00 67 0 0 0
00:00:00 1 00:00 0.00 45 0 0 0
00:00:00 1 00:00 0.00 18 0 0 0
00:00:00 1 00:00 0.00 31 0 0 0
00:00:00 1 00:00 0.00 42 0 0 0
00:00:00 1 00:00 0.00 36 0 0 0
00:00:00 1 00:00 0.00 33 0 0 0
00:00:00 0.98 00:00 0.00 30 0 0 0
00:00:00 1 00:00 0.00 37 0 0 0
00:00:00 1 00:00 0.00 37 0 0 0
00:00:00 1 00:00 0.00 15 0 0 0
00:00:00 0.96 00:00 0.00 48 0 0 0
00:00:00 1 00:00 0.00 62 0 0 0
00:00:00 1 00:00 0.00 44 0 0 0
00:00:00 1 00:00 0.00 19 0 0 0
00:00:00 1 00:00 0.00 13 0 0 0
00:00:00 0.95 00:00 0.00 17 0 0 0
00:00:00 1 00:00 0.00 15 0 0 0
00:00:00 1 00:00 0.00 31 0 0 0
00:00:00 1 00:00 0.00 48 0 0 0
00:00:00 1 00:00 0.00 32 0 0 0
00:00:00 1 00:00 0.00 30 0 0 0
00:00:00 0.95 00:00 0.00 40 0 0 0
00:00:00 1 00:00 0.00 25 0 0 0
00:00:00 1 00:00 0.00 44 0 0 0
00:00:00 1 00:00 0.00 55 0 0 0
00:00:00 1 00:00 0.00 64 0 0 0
00:00:00 0.96 00:00 0.00 63 0 0 0
00:00:00 1 00:00 0.00 74 0 0 0
00:00:00 1 00:00 0.00 58 0 0 0
00:00:00 1 00:00 0.00 34 0 0 0
00:00:00 1 00:00 0.00 37 0 0 0
00:00:00 1 00:00 0.00 23 0 0 0
00:00:00 1 00:00 0.00 15 0 0 0
00:00:00 0.94 00:00 0.00 21 0 0 0
00:00:00 1 00:00 0.00 4 0 0 0
00:00:00 1 00:00 0.00 10 0 0 0
00:00:00 1 00:00 0.00 8 0 0 0
00:00:00 0.98 00:00 0.00 42 0 0 0
00:00:00 1 00:00 0.00 25 0 0 0
00:00:00 1 00:00 0.00 23 0 0 0
00:00:00 1 00:00 0.00 30 0 0 0
00:00:00 1 00:00 0.00 26 0 0 0
00:00:00 1 00:00 0.00 16 0 0 0
00:00:00 0.86 00:00 0.00 15 0 0 0
00:00:00 1 00:00 0.00 49 0 0 0
00:00:00 1 00:00 0.00 23 0 0 0
00:00:00 1 00:00 0.00 27 0 0 0
00:00:00 1 00:00 0.00 23 0 0 0
00:00:00 0.95 00:00 0.00 22 0 0 0
00:00:00 1 00:00 0.00 47 0 0 0
00:00:00 1 00:00 0.00 31 0 0 0
00:00:00 0.88 00:00 0.00 15 0 0 0
00:00:00 1 00:00 0.00 18 0 0 0
00:00:00 1 00:00 0.00 20 0 0 0
00:00:00 0.89 00:00 0.00 17 0 0 0
00:00:00 1 00:00 0.00 30 0 0 0
00:00:00 1 00:00 0.00 17 0 0 0
00:00:00 0.98 00:00 0.00 22 0 0 0
00:00:00 1 00:00 0.00 17 0 0 0
00:00:00 1 00:00 0.00 36 0 0 0
00:00:00 0.97 00:00 0.00 36 0 0 0
00:00:00 1 00:00 0.00 14 0 0 0
00:00:00 0.9 00:00 0.00 22 0 0 0
00:00:00 1 00:00 0.00 19 0 0 0
00:00:00 1 00:00 0.00 19 0 0 0
00:00:00 0.97 00:00 0.00 25 0 0 0
00:00:00 1 00:00 0.00 15 0 0 0
00:00:00 1 00:00 0.00 25 0 0 0
00:00:00 1 00:00 0.00 21 0 0 0
00:00:00 0.98 00:00 0.00 20 0 0 0
00:00:00 1 00:00 0.00 37 0 0 0
00:00:00 1 00:00 0.00 10 0 0 0
00:00:00 1 00:00 0.00 24 0 0 0
00:00:00 0.94 00:00 0.00 40 0 0 0
00:00:00 1 00:00 0.00 40 0 0 0
00:00:00 1 00:00 0.00 59 0 0 0
00:00:00 1 00:00 0.00 17 0 0 0
00:00:00 1 00:00 0.00 25 0 0 0
00:00:00 1 00:00 0.00 14 0 0 0
00:00:00 1 00:00 0.00 27 0 0 0
00:00:00 1 00:00 0.00 26 0 0 0
00:00:00 0.98 00:00 0.00 31 0 0 0
00:00:00 1 00:00 0.00 17 0 0 0
00:00:00 0.97 00:00 0.00 26 0 0 0
00:00:00 1 00:00 0.00 26 0 0 0
00:00:00 1 00:00 0.00 15 0 0 0
00:00:00 1 00:00 0.00 36 0 0 0
00:00:00 1 00:00 0.00 10 0 0 0
00:00:00 1 00:00 0.00 10 0 0 0
00:00:00 0.96 00:00 0.00 23 0 0 0
00:00:00 1 00:00 0.00 32 0 0 0
00:00:00 1 00:00 0.00 19 0 0 0
00:00:00 1 00:00 0.00 24 0 0 0
00:00:00 1 00:00 0.00 3 0 0 0
00:00:00 1 00:00 0.00 17 0 0 0
00:00:00 0.98 00:00 0.00 24 0 0 0
00:00:00 1 00:00 0.00 15 0 0 0
00:00:00 1 00:00 0.00 39 0 0 0
00:00:00 1 00:00 0.00 8 0 0 0
00:00:00 1 00:00 0.00 19 0 0 0
00:00:00 0.89 00:00 0.00 14 0 0 0
00:00:00 0.97 00:00 0.00 26 0 0 0
00:00:00 1 00:00 0.00 14 0 0 0
00:00:00 1 00:00 0.00 19 0 0 0
00:00:00 0.88 00:00 0.00 12 0 0 0
00:00:00 1 00:00 0.00 28 0 0 0
00:00:00 0.96 00:00 0.00 24 0 0 0
00:00:00 1 00:00 0.00 17 0 0 0
00:00:00 1 00:00 0.00 10 0 0 0
00:00:00 0.97 00:00 0.00 14 0 0 0
00:00:00 1 00:00 0.00 33 0 0 0
00:00:00 1 00:00 0.00 37 0 0 0
00:00:00 1 00:00 0.00 13 0 0 0
00:00:00 0.92 00:00 0.00 9 0 0 0
00:00:00 1 00:00 0.00 25 0 0 0
00:00:00 1 00:00 0.00 26 0 0 0
00:00:00 1 00:00 0.00 32 0 0 0
00:00:00 0.96 00:00 0.00 26 0 0 0
00:00:00 1 00:00 0.00 26 0 0 0
00:00:00 0.96 00:00 0.00 18 0 0 0
00:00:00 1 00:00 0.00 21 0 0 0
00:00:00 1 00:00 0.00 28 0 0 0
00:00:00 0.97 00:00 0.00 31 0 0 0
00:00:00 1 00:00 0.00 28 0 0 0
00:00:00 1 00:00 0.00 16 0 0 0
00:00:00 0.97 00:00 0.00 13 0 0 0
00:00:00 1 00:00 0.00 27 0 0 0
00:00:00 0.97 00:00 0.00 17 0 0 0
00:00:00 1 00:00 0.00 20 0 0 0
00:00:00 1 00:00 0.00 21 0 0 0
00:00:00 1 00:00 0.00 29 0 0 0
00:00:00 1 00:00 0.00 38 0 0 0
00:00:00 1 00:00 0.00 39 0 0 0
00:00:00 1 00:00 0.00 41 0 0 0
00:00:00 0.91 00:00 0.00 47 0 0 0
00:00:00 1 00:00 0.00 24 0 0 0
00:00:00 1 00:00 0.00 16 0 0 0
00:00:00 1 00:00 0.00 27 0 0 0
00:00:00 1 00:00 0.00 24 0 0 0
00:00:00 1 00:00 0.00 50 0 0 0
00:00:00 0.93 00:00 0.00 18 0 0 0
00:00:00 1 00:00 0.00 11 0 0 0
00:00:00 0.98 00:00 0.00 29 0 0 0
00:00:00 0.96 00:00 0.00 29 0 0 0
00:00:00 1 00:00 0.00 28 0 0 0
00:00:00 1 00:00 0.00 26 0 0 0
00:00:00 0.89 00:00 0.00 14 0 0 0
00:00:00 1 00:00 0.00 34 0 0 0
00:00:00 0.94 00:00 0.00 20 0 0 0
00:00:00 1 00:00 0.00 28 0 0 0
00:00:00 0.97 00:00 0.00 26 0 0 0
00:00:00 1 00:00 0.00 24 0 0 0
00:00:00 0.92 00:00 0.00 12 0 0 0
00:00:00 1 00:00 0.00 28 0 0 0
00:00:00 1 00:00 0.00 49 0 0 0
00:00:00 1 00:00 0.00 64 0 0 0
00:00:00 0.97 00:00 0.00 36 0 0 0
00:00:00 1 00:00 0.00 35 0 0 0
00:00:00 1 00:00 0.00 40 0 0 0
00:00:00 1 00:00 0.00 32 0 0 0
00:00:00 1 00:00 0.00 25 0 0 0
00:00:00 1 00:00 0.00 43 0 0 0
00:00:00 1 00:00 0.00 17 0 0 0
00:00:00 1 00:00 0.00 63 0 0 0
00:00:00 1 00:00 0.00 45 0 0 0
00:00:00 1 00:00 0.00 36 0 0 0
00:00:00 1 00:00 0.00 50 0 0 0
00:00:00 0.87 00:00 0.00 26 0 0 0
00:00:00 1 00:00 0.00 32 0 0 0
00:00:00 1 00:00 0.00 13 0 0 0
00:00:00 1 00:00 0.00 25 0 0 0
00:00:00 1 00:00 0.00 4 0 0 0
00:00:00 1 00:00 0.00 8 0 0 0
00:00:00 1 00:00 0.00 36 0 0 0
00:00:00 1 00:00 0.00 38 0 0 0
00:00:00 1 00:00 0.00 23 0 0 0
00:00:00 0.94 00:00 0.00 27 0 0 0
00:00:00 1 00:00 0.00 35 0 0 0
00:00:00 1 00:00 0.00 23 0 0 0
00:00:00 0.96 00:00 0.00 25 0 0 0
00:00:00 1 00:00 0.00 21 0 0 0
00:00:00 1 00:00 0.00 24 0 0 0
00:00:00 1 00:00 0.00 37 0 0 0
00:00:00 1 00:00 0.00 11 0 0 0
00:00:00 0.95 00:00 0.00 41 0 0 0
00:00:00 1 00:00 0.00 38 0 0 0
00:00:00 0.91 00:00 0.00 19 0 0 0
00:00:00 1 00:00 0.00 20 0 0 0
00:00:00 1 00:00 0.00 29 0 0 0
00:00:00 1 00:00 0.00 38 0 0 0
00:00:00 1 00:00 0.00 56 0 0 0
00:00:00 1 00:00 0.00 61 0 0 0
00:00:00 0.95 00:00 0.00 46 0 0 0
00:00:00 1 00:00 0.00 35 0 0 0
00:00:00 0.97 00:00 0.00 49 0 0 0
00:00:00 1 00:00 0.00 7 0 0 0
00:00:00 1 00:00 0.00 22 0 0 0
00:00:00 1 00:00 0.00 7 0 0 0
00:00:00 1 00:00 0.00 14 0 0 0
00:00:00 0.84 00:00 0.00 8 0 0 0
00:00:00 1 00:00 0.00 34 0 0 0
00:00:00 1 00:00 0.00 22 0 0 0
00:00:00 1 00:00 0.00 15 0 0 0
00:00:00 0.31 00:00 0.00 3 0 0 0
Új edzésszakasz

Hozzászólás írásához be kell jelentkezned!

0 hozzászólás

Felszerelések

Add meg az edzéshez tartozó felszerelésed!